Location: Complexul Astronomic Baia Mare
(47.6577°N, 23.5639°E)
Time: 06:54:24
(UTC+03:00)

ISS - Pass Details

Date: 23 May 2017
Orbit: 402 x 408 km, 51.6° (Epoch: 29 May)

Event Time Altitude Azimuth Distance (km) Brightness Sun altitude
Rises 03:50:18 0° 293° (WNW) 2,331 -0.1 -14.1°
Reaches altitude 10° 03:52:24 10° 296° (WNW) 1,468 -1.1 -13.9°
Maximum altitude 03:55:41 68° 20° (NNE) 439 -3.5 -13.6°
Drops below altitude 10° 03:58:56 10° 104° (ESE) 1,459 -0.7 -13.3°
Sets 04:01:01 0° 107° (ESE) 2,315 0.3 -13.0°
